Temp
24 24 25 27 32 33 31 30 31 32 33 33 33 33 33 33 32 30 25 25 24 24 24 22 21 21 21 21 21 21 21 21 20 20 20 20 20 20 21 21 21 21 21 21 21 21 21 20 20
25 25 26 31 32 32 31 32 31 32 32 33 33 33 33 31 32 30 29 24 24 24 24 23 21 21 21 21 21 20 20 20 20 20 19 20 20 20 20 21 21 20 21 20 20 21 21 21 21
25 25 32 33 32 31 31 31 31 32 32 33 33 33 33 30 31 30 26 24 25 24 24 23 21 21 21 21 21 20 20 20 20 20 19 20 19 19 20 20 20 20 20 20 20 20 20 21 21
27 30 32 33 31 30 31 31 31 32 33 33 33 32 31 27 28 27 25 25 25 24 24 22 21 21 21 21 20 20 20 20 20 20 20 19 19 19 19 20 19 20 20 20 20 20 20 20 21
28 32 32 32 30 31 31 31 32 32 32 32 33 32 30 27 26 25 25 25 26 25 24 22 21 21 21 20 20 20 19 19 19 20 20 18 18 19 19 19 19 19 19 19 20 20 19 20 20
31 31 32 32 31 30 31 31 32 32 32 31 32 32 29 27 24 25 25 25 25 24 24 24 21 21 20 20 20 20 19 19 19 19 19 19 18 18 20 20 18 18 18 18 19 19 19 20 20
31 32 31 30 30 30 30 31 30 31 31 29 30 31 31 26 22 24 24 25 24 24 24 24 24 22 21 20 20 20 20 19 18 18 18 18 18 17 18 19 19 19 19 19 19 19 19 19 20
29 31 30 29 30 28 29 30 30 30 28 29 26 27 29 22 22 23 24 24 24 23 23 24 24 24 22 21 21 20 19 19 18 18 18 18 18 18 17 17 17 17 18 19 20 19 19 19 19
27 31 31 29 30 28 29 29 29 28 29 24 23 22 21 21 23 24 25 24 24 23 23 23 24 24 24 23 23 21 20 20 19 19 19 18 20 20 19 19 18 16 16 16 18 19 19 20 20
30 31 29 28 28 28 28 28 27 28 27 24 23 22 21 22 23 23 24 24 23 23 22 22 24 24 24 23 23 23 23 22 21 22 21 21 21 20 19 19 18 17 16 16 16 17 19 19 20
28 30 28 27 27 27 27 25 23 26 24 21 20 21 21 22 22 22 22 22 21 21 20 21 21 21 21 21 21 22 22 23 23 22 22 21 20 20 20 20 19 19 18 19 18 18 19 19 19
29 27 27 26 25 26 26 24 22 21 20 20 19 20 21 22 21 21 21 21 21 20 20 20 20 21 21 20 19 19 20 20 22 22 21 21 20 20 20 20 20 19 19 19 19 19 19 18 18
29 27 27 25 24 24 24 22 21 19 19 19 19 20 21 21 21 20 20 20 20 20 20 20 20 20 21 20 19 19 19 19 19 20 20 20 19 20 20 20 20 20 19 19 20 19 19 19 19
26 26 26 26 25 24 23 21 22 19 20 20 20 20 20 20 20 20 20 20 20 20 19 19 19 19 19 19 18 17 17 18 18 18 18 18 19 19 18 19 20 19 19 19 20 20 20 20 19
25 27 26 26 25 23 24 22 20 19 20 20 21 21 20 19 19 19 19 19 19 19 19 18 19 19 19 19 18 18 17 17 17 17 17 17 17 17 17 17 18 19 19 19 19 19 19 19 19
27 27 27 25 25 23 24 26 19 19 20 20 21 21 20 19 19 19 18 19 19 19 19 18 19 19 19 19 19 18 18 18 18 18 17 16 16 16 16 16 15 16 16 17 18 18 18 19 19
27 29 27 25 24 24 24 24 20 19 20 20 21 21 20 20 19 19 18 18 18 18 18 18 18 18 18 18 19 18 18 18 18 18 17 17 16 16 16 15 14 14 15 16 17 18 18 19 19
28 28 26 26 24 24 24 22 19 19 20 20 20 20 20 20 19 18 18 18 18 18 18 18 18 17 17 17 18 18 18 18 17 17 16 16 16 16 16 16 16 14 13 13 15 17 18 17 19
26 25 25 25 22 23 22 22 20 19 19 19 20 20 20 20 19 18 18 18 18 18 18 17 17 17 17 17 17 17 17 17 17 16 16 16 15 15 15 16 15 15 14 13 13 14 16 17 17
25 25 26 23 21 23 23 22 21 19 19 20 20 20 20 20 20 19 18 18 17 17 17 17 17 16 16 15 15 15 16 16 15 15 15 15 15 15 15 15 15 15 15 14 13 12 13 15 15
24 25 25 24 22 21 21 23 20 19 19 19 20 20 20 19 20 20 19 18 17 17 16 16 16 16 16 15 15 15 15 15 15 15 15 15 14 15 14 14 15 15 15 15 14 14 11 11 14
24 22 22 22 23 25 22 26 21 21 19 19 19 19 20 19 19 19 19 18 18 17 16 15 15 15 15 15 15 14 14 15 15 14 14 14 14 14 14 14 14 14 14 15 15 14 14 12 11
23 21 21 21 22 22 22 22 26 20 19 20 20 20 19 19 19 19 18 17 17 16 15 15 15 15 15 15 14 14 14 14 14 14 14 14 14 14 14 14 14 14 14 14 14 14 14 14 13
20 21 20 20 21 23 24 23 28 21 22 21 20 19 19 19 19 18 18 17 17 16 15 15 15 15 14 14 14 14 13 13 14 14 14 14 14 14 13 13 13 13 13 13 13 14 13 14 14
22 22 25 25 23 26 21 21 26 23 21 22 20 19 19 18 18 18 18 17 16 15 15 15 15 14 14 14 13 13 13 13 13 13 13 13 13 13 13 13 13 13 13 13 12 13 13 13 13
21 22 25 25 26 26 19 22 26 20 20 21 20 19 18 18 18 17 17 16 15 15 15 14 14 13 13 13 13 13 13 12 12 12 12 12 12 12 12 12 12 12 12 13 12 12 12 13 13
21 22 19 22 19 21 25 23 22 18 18 18 18 18 17 17 17 17 16 15 15 15 14 14 13 13 13 12 12 12 12 12 11 11 11 11 11 11 11 11 11 12 12 12 12 12 12 13 13
20 19 21 22 23 23 25 23 25 19 19 18 18 18 18 16 16 17 16 15 15 14 13 13 13 12 12 12 11 11 11 11 11 11 11 10 10 10 11 10 10 11 11 11 11 12 12 12 13
19 20 19 19 21 23 24 25 24 22 22 20 20 19 18 17 16 16 15 15 14 13 13 12 12 11 11 10 10 10 10 10 10 10 10 10 10 10 10 10 10 11 11 11 11 11 12 12 12
18 20 21 21 22 20 18 21 20 20 19 19 20 20 18 16 15 15 15 14 14 13 13 12 11 10 10 9 9 9 9 9 9 9 9 9 9 9 10 9 9 10 11 11 11 11 11 12 12
Height
798 796 796 794 802 799 819 820 804 805 801 794 792 792 798 793 802 822 809 810 811 814 816 818 820 822 823 825 825 827 827 827 827 827 827 826 825 825 824 824 823 823 822 821 820 820 820 820 819
797 796 796 789 806 816 824 808 813 806 799 795 793 791 794 806 798 804 808 812 813 815 818 820 821 823 825 826 827 828 828 828 827 827 827 827 826 826 826 825 825 824 823 823 822 822 822 821 821
796 796 792 797 808 823 824 812 810 803 797 796 795 793 796 811 805 807 812 813 815 816 819 821 822 825 826 827 828 828 828 829 829 828 827 826 827 827 827 827 827 825 824 824 824 823 823 823 823
797 794 792 805 821 819 817 812 810 803 799 797 796 803 806 818 815 816 816 816 817 819 820 820 822 825 826 827 827 827 828 828 828 828 827 827 827 826 826 827 827 827 826 825 824 824 824 824 823
797 791 806 815 822 816 812 812 808 810 807 805 799 808 812 819 819 818 819 820 821 822 823 823 823 824 825 825 826 827 827 827 827 827 827 827 827 825 826 826 826 826 825 825 825 825 824 824 824
797 796 812 822 822 817 813 811 809 810 808 808 807 806 815 821 820 820 821 822 822 823 824 825 824 824 826 828 828 829 829 829 829 828 828 827 826 825 825 824 824 824 824 824 824 824 824 824 824
801 803 819 821 825 823 823 811 815 814 813 817 814 813 811 819 825 823 823 823 824 825 826 826 827 827 827 828 829 829 829 830 830 830 829 829 828 827 826 824 823 823 823 822 824 824 824 823 823
803 804 818 822 826 834 823 816 815 816 823 819 821 826 819 830 827 825 824 825 826 827 827 827 827 827 828 828 828 828 829 829 829 829 829 828 828 827 827 826 825 824 823 822 822 823 823 823 823
807 812 820 826 825 831 821 821 817 820 821 831 837 839 839 834 829 826 825 826 827 828 828 828 828 827 827 828 828 827 828 828 828 828 828 828 829 829 829 828 826 826 825 824 822 823 822 822 822
808 815 823 821 821 826 824 823 827 822 827 837 838 841 839 835 832 830 829 828 829 830 829 828 827 827 826 826 826 826 826 827 826 827 827 827 827 828 827 827 825 825 824 823 822 821 821 822 823
813 819 821 824 823 824 824 831 835 828 840 848 848 845 841 838 836 834 833 832 832 832 831 829 827 826 824 825 824 824 825 824 824 824 825 825 825 825 824 824 824 824 823 824 823 822 822 821 821
818 820 821 827 827 826 827 832 843 842 851 852 851 849 844 841 840 839 837 836 834 833 832 830 827 825 823 823 823 823 823 823 822 822 823 824 824 823 823 822 822 821 821 821 821 821 820 819 819
817 821 823 827 830 831 833 841 844 852 854 853 852 850 847 845 844 843 841 840 838 836 835 832 829 825 823 823 822 821 821 821 821 821 821 822 822 821 820 820 819 819 819 818 817 817 817 817 817
822 823 827 828 830 834 838 846 843 855 853 852 851 850 850 849 848 846 844 843 841 840 838 836 832 829 826 824 823 822 820 820 819 819 818 819 819 818 818 818 818 817 817 816 815 814 814 814 813
823 825 826 829 830 837 835 844 852 854 853 851 851 851 852 852 851 850 849 847 845 843 842 839 836 834 830 828 826 825 823 820 819 818 817 816 816 815 814 814 814 814 814 813 813 812 811 811 810
824 824 830 832 829 835 836 832 852 853 851 852 851 851 853 854 853 852 851 850 848 845 844 843 840 837 834 832 830 828 826 824 822 820 818 816 814 813 811 810 808 810 810 810 809 809 809 807 807
824 820 829 833 833 832 833 835 849 852 852 852 850 851 852 853 854 854 853 852 851 848 847 845 843 840 838 836 833 831 829 827 824 822 819 817 815 812 810 808 806 805 804 805 806 805 805 804 803
825 826 829 830 832 831 834 840 848 851 850 849 849 850 851 851 853 854 854 854 852 850 848 846 844 842 840 838 836 833 830 828 825 822 820 817 815 813 810 807 804 803 800 800 800 800 800 800 800
826 829 831 830 835 836 837 837 844 848 850 849 849 848 849 850 854 854 854 854 852 851 849 847 846 844 842 840 837 834 831 828 826 822 819 816 813 811 808 806 803 801 799 797 796 795 794 795 796
829 830 827 834 837 835 830 831 837 844 845 844 845 846 848 850 850 851 852 853 852 851 850 848 846 844 842 841 838 836 832 828 825 821 818 815 811 809 806 803 801 798 796 794 792 791 790 788 790
829 830 830 833 836 839 837 824 835 840 841 843 844 845 847 848 848 848 849 850 850 849 849 848 846 844 842 840 837 834 830 826 822 819 816 812 809 806 803 800 798 795 793 791 789 787 786 785 785
832 832 835 839 838 830 836 819 827 829 839 840 840 843 843 846 847 848 848 847 847 847 847 846 844 842 839 837 834 831 827 822 819 816 812 809 805 802 800 797 794 792 789 787 784 783 782 782 779
833 838 839 839 836 839 836 837 803 826 834 833 834 837 841 843 845 846 847 846 844 844 844 843 841 839 836 834 831 827 823 819 813 810 806 803 800 797 794 792 790 787 785 782 780 779 776 775 775
839 839 842 841 838 836 822 830 789 821 816 820 826 834 838 841 843 844 843 842 841 841 841 840 838 835 832 829 826 822 818 812 807 803 800 796 793 790 788 786 784 781 779 778 775 773 771 770 768
835 835 825 828 832 814 832 834 796 808 815 812 822 829 834 838 840 840 839 839 839 839 838 836 833 830 827 823 820 816 811 807 801 797 792 789 785 783 781 779 777 775 773 771 770 768 766 764 762
838 837 826 831 817 812 843 826 797 816 817 815 821 826 832 835 836 836 836 837 836 836 834 832 829 825 822 818 814 809 805 800 795 790 787 782 779 776 774 772 770 768 766 764 763 761 759 758 756
839 837 842 836 846 838 806 807 805 819 821 821 824 827 830 832 833 833 835 835 833 832 830 828 824 820 816 812 807 802 797 793 788 784 780 776 772 769 767 765 762 759 757 756 754 753 751 751 750
841 842 840 835 832 825 803 813 794 815 816 820 821 822 825 830 830 831 832 831 830 828 826 823 819 814 810 806 801 796 791 786 781 777 772 768 764 761 758 755 752 749 748 747 746 744 743 743 742
846 841 844 842 835 821 815 795 790 797 801 807 812 814 819 825 828 829 828 827 825 823 820 817 813 809 804 800 795 790 784 779 774 769 764 759 756 752 749 746 743 740 738 737 737 736 735 734 734
845 838 833 833 828 836 842 816 800 804 805 807 805 809 816 824 826 825 824 823 820 818 815 812 808 803 799 795 789 783 778 772 767 761 756 753 748 744 740 738 735 731 729 729 728 727 726 726 725
Wind_Speed
9 5 2 4 2 4 7 6 2 7 7 6 4 7 10 12 12 5 3 8 7 13 13 12 12 9 7 5 5 4 4 2 3 3 4 2 5 8 6 6 6 7 7 8 8 8 7 7 7
6 2 2 1 1 4 7 4 9 7 6 4 1 1 7 11 9 6 5 6 10 14 12 11 12 10 9 7 5 3 2 2 0 1 2 2 2 2 3 5 6 6 6 7 7 6 5 5 6
3 2 2 2 3 7 6 7 6 6 6 5 2 5 5 8 10 5 5 8 11 13 11 10 12 9 8 6 5 4 3 3 2 1 3 1 2 2 3 3 3 4 6 5 6 5 4 2 2
2 3 2 2 9 8 7 8 7 4 5 9 5 6 9 16 8 8 8 8 11 10 10 11 12 10 9 8 7 6 6 4 5 4 2 3 3 2 7 2 2 2 1 2 1 3 2 2 2
2 2 2 4 8 6 9 8 10 9 4 9 8 6 7 11 13 6 7 6 7 8 7 8 9 10 10 9 8 7 6 5 5 4 3 4 4 2 6 5 3 1 3 2 4 1 3 1 3
1 2 2 3 6 5 9 8 7 9 6 9 4 2 7 17 19 6 5 6 6 7 7 6 7 8 7 7 7 6 5 5 5 4 3 4 4 3 2 4 5 5 5 5 4 3 2 0 2
2 2 3 3 4 7 7 3 9 5 8 10 8 1 4 20 20 6 4 5 6 6 5 4 4 4 5 7 6 6 6 6 5 4 4 3 3 3 3 2 4 5 7 6 6 6 1 3 3
1 1 3 2 2 6 4 3 5 8 9 4 12 5 3 19 14 4 5 5 5 4 2 3 3 3 4 6 7 8 7 7 7 6 6 6 6 5 4 4 4 3 3 4 9 11 7 5 4
1 1 2 3 2 6 3 4 6 3 7 9 8 10 11 14 8 4 5 5 4 2 1 4 5 6 6 6 7 9 7 8 7 8 9 7 5 6 6 7 8 4 5 5 4 14 12 10 8
2 1 3 3 5 3 2 3 6 1 5 8 10 12 11 10 8 9 8 6 7 7 6 6 8 10 10 10 9 9 8 6 6 7 7 7 8 7 7 8 9 7 6 6 6 6 12 11 9
2 2 3 6 5 2 1 4 5 2 8 9 9 10 11 11 13 13 13 12 10 10 10 11 10 12 11 12 11 10 9 9 9 9 9 8 8 9 8 8 7 7 9 6 7 7 6 7 8
2 4 4 5 3 3 3 5 6 11 6 5 7 7 11 13 15 15 16 16 14 15 15 15 14 11 11 14 15 15 13 12 12 10 10 10 9 10 10 10 10 10 9 9 9 8 9 8 8
1 3 5 6 10 9 12 10 7 9 6 5 7 8 10 13 14 15 15 16 17 18 18 19 20 16 11 5 9 12 14 18 13 12 11 12 12 13 12 12 12 12 11 11 11 10 10 10 10
2 2 4 7 7 9 7 5 1 5 4 6 7 9 11 13 13 14 16 16 17 18 19 19 21 21 18 13 10 8 9 10 13 16 15 15 16 16 15 15 14 13 13 13 12 12 12 12 11
2 3 7 6 5 4 8 5 5 5 4 6 7 9 10 11 12 14 14 16 15 16 18 19 19 20 19 18 16 14 13 11 11 12 14 15 17 18 16 16 17 16 15 15 15 14 14 13 13
2 3 5 4 2 3 10 2 7 5 6 6 6 8 8 9 10 12 12 13 14 15 17 18 19 20 19 18 16 15 14 13 12 12 11 12 15 17 19 22 22 20 16 16 16 16 16 15 15
3 6 4 5 3 1 3 1 8 7 7 7 7 7 7 8 9 10 10 11 12 13 13 15 18 20 19 18 15 14 13 13 13 13 13 14 13 12 13 16 17 18 17 17 18 19 18 17 17
3 5 3 5 2 3 3 4 8 9 10 9 8 7 6 6 6 6 7 8 9 10 12 13 15 17 17 16 16 15 15 14 14 13 14 14 13 13 13 12 13 14 15 21 19 21 19 19 18
2 3 5 2 1 4 2 5 10 11 10 10 9 8 6 4 3 2 3 4 6 8 10 12 13 15 15 16 17 18 17 16 16 15 16 16 15 14 13 13 13 12 13 16 19 20 21 22 18
3 5 6 1 0 4 4 10 10 13 12 11 10 9 7 5 3 2 1 2 4 5 7 10 12 13 13 13 15 16 18 18 18 16 17 17 17 16 15 15 14 14 14 14 16 20 20 21 19
4 7 4 3 1 2 7 9 12 14 11 11 10 8 6 6 5 4 5 5 5 6 7 8 10 13 14 13 15 17 19 19 19 18 20 18 19 18 17 17 17 17 16 15 15 15 19 21 20
6 2 1 3 4 5 2 5 8 13 15 14 14 11 9 7 7 7 9 10 11 9 8 8 10 14 15 16 19 22 23 23 22 23 22 22 21 20 19 20 20 20 20 19 17 15 16 17 20
3 1 3 4 6 6 6 5 4 9 14 16 15 12 9 8 5 6 8 10 11 9 9 10 13 18 20 22 24 24 24 26 27 26 26 25 24 23 22 21 21 22 22 22 21 19 17 17 19
3 3 1 1 3 5 5 4 4 6 8 13 15 12 10 8 6 6 6 6 7 7 9 12 18 22 25 26 26 26 28 29 29 29 30 30 29 26 25 24 23 23 24 24 24 22 20 19 20
4 5 3 4 4 3 5 5 9 3 6 10 16 13 11 7 4 3 5 7 8 10 13 18 23 27 27 28 28 28 29 30 30 30 30 31 31 29 28 26 26 25 26 25 24 25 24 22 21
0 3 4 5 4 4 3 6 0 1 4 9 12 10 7 6 4 4 6 8 10 13 18 23 25 28 28 28 29 29 29 29 30 30 30 31 30 30 30 29 30 30 28 28 27 26 27 25 23
4 4 3 3 1 4 3 5 7 4 9 11 13 11 8 4 4 6 9 10 13 17 22 24 27 29 28 29 30 31 31 30 31 32 32 32 33 33 33 33 33 31 29 28 28 27 28 27 25
4 4 3 3 4 5 4 6 8 9 13 13 15 14 10 4 5 7 10 13 17 21 24 25 28 29 30 30 31 31 32 32 32 33 33 32 31 33 33 33 35 34 30 28 27 28 28 29 27
3 3 2 3 4 4 7 4 3 1 5 12 14 14 12 8 7 7 11 16 20 23 25 27 28 29 31 31 31 32 33 33 33 34 34 32 34 36 34 32 32 31 29 28 26 28 30 29 27
3 3 5 4 4 3 4 9 3 2 3 5 9 11 12 9 8 10 14 18 21 24 26 28 29 29 29 31 33 33 34 35 35 35 35 35 36 34 32 32 31 30 28 27 25 26 27 29 28
Wind_Direction
334 320 266 229 198 92 79 68 6 51 63 23 28 23 54 42 27 47 75 143 129 150 155 157 174 161 154 154 151 152 134 114 83 67 47 54 54 62 40 62 35 47 50 62 54 79 77 82 91
324 318 243 270 85 90 82 51 58 44 36 355 35 349 55 74 46 81 106 143 140 149 154 161 165 164 161 162 167 173 159 149 142 68 36 4 48 75 45 62 39 24 44 50 64 75 90 91 104
324 308 285 35 51 62 77 38 36 21 57 15 61 37 26 10 37 39 90 133 144 150 154 165 161 166 173 175 188 201 205 212 222 200 257 13 89 50 99 85 73 46 55 71 63 73 55 70 109
303 202 160 82 88 63 50 41 17 101 47 35 0 75 96 31 5 2 131 130 142 151 154 174 165 172 188 191 204 207 227 224 225 236 235 127 128 187 141 139 56 247 287 40 32 68 44 31 41
353 253 121 106 88 96 54 42 37 49 47 25 349 70 81 33 9 55 115 116 126 140 151 166 181 183 196 205 211 209 227 229 223 213 195 163 160 188 185 170 188 233 231 192 224 224 26 36 49
208 289 136 103 95 96 62 40 36 46 44 25 48 33 85 38 23 44 118 118 122 141 153 168 200 203 212 218 225 236 242 245 246 233 220 191 185 203 219 215 207 209 198 227 213 167 3 242 279
19 329 69 100 95 112 38 14 32 30 32 37 338 0 110 30 6 25 120 116 120 134 153 162 186 229 240 235 241 251 256 261 260 257 265 255 239 239 250 239 218 223 227 227 185 174 180 172 199
26 290 128 68 88 95 29 25 16 33 61 97 1 24 4 337 344 34 116 113 110 117 149 201 215 230 244 250 267 263 258 259 255 258 259 263 263 263 274 270 285 245 238 240 193 188 208 213 189
313 239 75 92 117 106 40 8 50 48 74 60 48 18 331 337 3 65 103 90 79 53 297 265 258 257 258 259 258 274 266 269 261 273 271 269 268 272 274 263 262 273 271 269 236 205 220 222 223
358 340 70 49 66 84 43 16 339 246 80 65 36 28 15 20 38 55 55 50 36 17 351 318 282 269 265 260 259 256 248 256 256 251 246 256 256 260 253 262 276 266 260 258 257 238 227 222 239
45 51 106 80 85 349 287 77 27 180 62 40 9 17 28 42 46 48 46 40 29 18 8 351 325 289 268 261 261 263 256 252 253 251 251 254 255 255 257 251 258 253 270 259 273 269 256 240 232
163 88 49 62 350 197 133 97 78 55 79 45 40 32 46 51 49 47 46 42 37 34 26 15 360 335 289 267 266 265 267 267 260 259 258 258 263 264 259 256 253 247 243 243 248 251 248 247 243
105 89 69 92 85 95 102 83 102 80 74 80 78 65 60 58 58 54 52 49 44 39 33 28 24 20 8 316 305 296 291 280 276 271 267 265 266 267 265 259 256 255 250 245 240 238 240 243 245
70 33 80 113 125 135 119 113 203 84 115 101 88 76 68 62 57 58 50 47 47 44 39 35 33 33 34 28 10 345 322 312 295 283 271 276 270 270 268 270 266 260 256 253 245 241 239 238 238
113 161 136 106 170 120 139 119 99 121 142 117 105 94 82 73 67 60 52 50 47 48 44 39 36 35 36 36 35 28 14 353 331 311 296 289 280 276 272 268 269 264 262 258 256 249 243 244 241
204 214 202 89 176 129 200 263 155 161 168 140 124 110 100 85 76 68 58 54 50 50 47 43 39 36 34 31 28 24 21 18 14 7 354 335 310 293 282 275 275 258 258 258 253 251 249 245 241
203 272 230 171 79 236 239 110 165 179 188 169 154 135 122 111 90 72 62 55 50 47 41 36 31 27 24 20 18 15 12 9 4 359 354 351 352 339 303 287 282 271 255 252 255 253 247 248 247
249 252 221 252 109 279 267 182 168 180 193 183 168 158 152 136 97 79 64 53 48 42 36 30 25 19 15 11 8 3 0 356 351 345 341 336 334 335 332 318 302 285 269 256 252 253 251 249 250
188 231 259 251 21 288 242 201 189 185 195 191 188 180 174 158 132 120 64 42 33 29 23 20 13 8 4 1 358 352 347 341 338 333 332 329 321 320 321 317 313 306 281 267 257 254 249 249 248
213 255 257 182 138 281 263 258 203 193 201 198 192 196 190 190 195 192 306 323 345 352 3 360 358 352 347 342 338 333 328 326 324 322 323 324 320 312 309 307 308 305 298 287 270 251 254 246 237
229 263 259 303 249 240 293 255 200 206 204 202 212 212 213 228 250 264 274 289 296 306 325 332 334 337 331 321 318 316 314 308 310 312 312 313 313 309 301 301 301 299 297 291 285 269 247 246 248
267 150 171 276 291 289 308 305 193 195 209 210 209 209 217 227 245 269 293 288 277 286 296 304 320 327 328 324 316 310 304 300 299 300 300 298 297 298 292 293 295 295 292 286 283 275 262 246 245
33 6 301 278 262 294 181 241 123 187 216 213 211 211 221 227 240 280 287 289 288 275 289 302 312 318 319 315 312 306 299 296 294 291 293 294 292 287 285 286 288 289 287 284 279 277 268 253 251
123 216 209 187 212 238 139 233 207 187 232 205 202 201 200 200 236 267 286 307 313 295 298 308 314 313 313 309 307 301 301 298 291 288 288 290 287 285 281 280 284 287 284 281 278 272 267 264 255
236 256 239 212 210 355 150 221 278 227 222 203 185 188 185 193 229 285 322 332 323 316 314 312 312 310 311 307 304 301 298 295 292 289 286 287 283 280 281 277 280 283 285 276 276 271 266 263 260
69 291 304 290 288 345 158 236 117 359 187 178 176 179 186 208 231 295 316 316 313 314 313 312 311 309 308 306 304 301 298 294 290 288 287 286 286 283 283 281 280 279 279 276 272 271 261 262 263
129 227 18 283 220 261 217 241 195 176 169 177 187 192 196 218 263 288 289 299 307 308 310 309 309 307 306 306 304 302 298 294 291 289 288 286 282 281 280 280 277 273 271 271 270 267 261 260 263
280 106 227 192 271 267 213 274 270 193 199 201 208 213 209 232 294 286 284 296 305 307 308 308 309 307 307 306 304 302 300 296 292 289 287 282 282 282 282 284 277 267 262 264 266 265 259 259 262
158 206 210 297 267 287 298 280 47 336 217 217 224 227 227 241 299 298 299 307 310 307 310 311 311 309 308 308 305 302 299 296 293 291 288 282 285 283 279 281 277 263 259 259 260 260 258 257 259
291 263 237 252 195 244 299 273 109 261 278 264 247 240 230 247 297 296 309 310 309 310 310 311 311 310 308 307 304 302 300 298 295 292 289 288 287 282 279 280 273 262 258 257 258 255 257 257 257